When you browse on this site, cookies collect data to enhance your experience and personalize the content and advertising you see.
Visit our Privacy Policy to learn more. By continuing to use the site, you agree to this use of cookies and data.
  • In Hungary
  • List of Countries
  • For 7 days
  • Water Temperature
  • Satellite Maps
  • Weather Map
  • News
  • Weather Widgets
  • user-avatar
    Login

    Hourly Weather Caxias do Sul

    Today, 20 July, Saturday

    Time Temperature Precipitation Wind Pressure Humidity
    00:00 +12°C° 0 mm 1 mps 697 mmHg 88%
    01:00 +12°C° 0 mm 1 mps 697 mmHg 88%
    02:00 +12°C° 0 mm 1 mps 697 mmHg 88%
    03:00 +11°C° 0 mm 1 mps 697 mmHg 89%
    04:00 +11°C° 0 mm 1 mps 697 mmHg 90%
    05:00 +11°C° 0 mm 1 mps 697 mmHg 91%
    06:00 +10°C° 0 mm 1 mps 697 mmHg 91%
    07:00 +12°C° 0 mm 1 mps 697 mmHg 87%
    08:00 +13°C° 0 mm 2 mps 697 mmHg 83%
    09:00 +14°C° 0 mm 1 mps 698 mmHg 78%
    10:00 +18°C° 0 mm 1 mps 698 mmHg 72%
    11:00 +20°C° 0 mm 1 mps 698 mmHg 66%
    12:00 +22°C° 0 mm 1 mps 699 mmHg 59%
    13:00 +23°C° 0 mm 1 mps 698 mmHg 59%
    14:00 +23°C° 0 mm 1 mps 698 mmHg 59%
    15:00 +24°C° 0 mm 1 mps 697 mmHg 58%
    16:00 +22°C° 0 mm 1 mps 697 mmHg 68%
    17:00 +20°C° 0 mm 1 mps 696 mmHg 77%
    18:00 +16°C° 0 mm 1 mps 696 mmHg 86%
    19:00 +16°C° 0 mm 1 mps 696 mmHg 87%
    20:00 +15°C° 0 mm 1 mps 696 mmHg 88%
    21:00 +14°C° 0 mm 1 mps 695 mmHg 90%
    22:00 +14°C° 0 mm 1 mps 695 mmHg 89%
    23:00 +14°C° 0 mm 2 mps 695 mmHg 88%

    Tomorrow, 21 July, Sunday

    Time Temperature Precipitation Wind Pressure Humidity
    00:00 +14°C° 0 mm 2 mps 695 mmHg 87%
    01:00 +14°C° 0 mm 2 mps 695 mmHg 87%
    02:00 +13°C° 0 mm 2 mps 695 mmHg 87%
    03:00 +13°C° 0 mm 2 mps 694 mmHg 87%
    04:00 +13°C° 0 mm 2 mps 694 mmHg 88%
    05:00 +13°C° 0 mm 2 mps 694 mmHg 88%
    06:00 +13°C° 0 mm 2 mps 694 mmHg 89%
    07:00 +14°C° 0 mm 2 mps 695 mmHg 84%
    08:00 +15°C° 0 mm 2 mps 695 mmHg 80%
    09:00 +16°C° 0 mm 3 mps 696 mmHg 76%
    10:00 +18°C° 0 mm 3 mps 696 mmHg 70%
    11:00 +19°C° 0 mm 3 mps 696 mmHg 64%
    12:00 +21°C° 0 mm 3 mps 696 mmHg 58%
    13:00 +21°C° 0 mm 3 mps 695 mmHg 59%
    14:00 +22°C° 0 mm 3 mps 695 mmHg 59%
    15:00 +22°C° 0 mm 3 mps 694 mmHg 60%
    16:00 +20°C° 0 mm 3 mps 694 mmHg 65%
    17:00 +19°C° 0 mm 3 mps 693 mmHg 70%
    18:00 +17°C° 0 mm 2 mps 693 mmHg 75%
    19:00 +17°C° 0 mm 2 mps 693 mmHg 76%
    20:00 +16°C° 0 mm 2 mps 693 mmHg 78%
    21:00 +16°C° 0 mm 2 mps 693 mmHg 79%
    22:00 +16°C° 0 mm 2 mps 693 mmHg 79%
    23:00 +16°C° 0 mm 3 mps 693 mmHg 79%

    Day after tomorrow, 22 July, Monday

    Time Temperature Precipitation Wind Pressure Humidity
    00:00 +16°C° 0 mm 3 mps 693 mmHg 79%
    01:00 +14°C° 0 mm 3 mps 693 mmHg 79%
    02:00 +14°C° 0 mm 3 mps 693 mmHg 80%
    03:00 +14°C° 0 mm 3 mps 693 mmHg 80%
    04:00 +15°C° 0 mm 2 mps 693 mmHg 80%
    05:00 +15°C° 0 mm 2 mps 693 mmHg 80%
    06:00 +15°C° 0 mm 2 mps 694 mmHg 80%
    07:00 +15°C° 0 mm 2 mps 694 mmHg 77%
    08:00 +16°C° 0 mm 3 mps 694 mmHg 74%
    09:00 +17°C° 0 mm 3 mps 695 mmHg 72%
    10:00 +19°C° 0 mm 3 mps 695 mmHg 67%
    11:00 +20°C° 0 mm 3 mps 695 mmHg 62%
    12:00 +22°C° 0 mm 3 mps 695 mmHg 57%
    13:00 +21°C° 0 mm 3 mps 695 mmHg 62%
    14:00 +21°C° 0 mm 2 mps 695 mmHg 66%
    15:00 +20°C° 0 mm 2 mps 694 mmHg 70%
    16:00 +20°C° 0 mm 1 mps 694 mmHg 75%
    17:00 +19°C° 0 mm 1 mps 694 mmHg 80%
    18:00 +19°C° 0 mm 1 mps 694 mmHg 86%
    19:00 +18°C° 0 mm 1 mps 694 mmHg 87%
    20:00 +18°C° 0 mm 1 mps 694 mmHg 88%
    21:00 +16°C° 0 mm 1 mps 694 mmHg 90%
    22:00 +16°C° 0.1 mm 1 mps 694 mmHg 91%
    23:00 +16°C° 0.1 mm 1 mps 694 mmHg 92%

    23 July, Tuesday

    Time Temperature Precipitation Wind Pressure Humidity
    00:00 +15°C° 0.1 mm 1 mps 694 mmHg 94%
    01:00 +15°C° 0 mm 1 mps 694 mmHg 93%
    02:00 +15°C° 0 mm 1 mps 694 mmHg 92%
    03:00 +15°C° 0 mm 1 mps 694 mmHg 92%
    04:00 +15°C° 0 mm 1 mps 694 mmHg 91%
    05:00 +14°C° 0 mm 1 mps 694 mmHg 91%
    06:00 +14°C° 0 mm 1 mps 693 mmHg 91%
    07:00 +15°C° 0.2 mm 1 mps 694 mmHg 90%
    08:00 +15°C° 0.2 mm 1 mps 694 mmHg 89%
    09:00 +16°C° 0.2 mm 1 mps 695 mmHg 88%
    10:00 +18°C° 0.3 mm 1 mps 695 mmHg 85%
    11:00 +20°C° 0.3 mm 1 mps 695 mmHg 82%
    12:00 +21°C° 0.3 mm 1 mps 695 mmHg 79%
    13:00 +21°C° 0 mm 1 mps 695 mmHg 80%
    14:00 +21°C° 0 mm 1 mps 694 mmHg 82%
    15:00 +19°C° 0 mm 0 mps 694 mmHg 83%
    16:00 +18°C° 0.1 mm 0 mps 694 mmHg 85%
    17:00 +18°C° 0.1 mm 0 mps 694 mmHg 88%
    18:00 +17°C° 0.1 mm 0 mps 694 mmHg 90%
    19:00 +19°C° 0 mm 1 mps 694 mmHg 91%
    20:00 +18°C° 0 mm 1 mps 694 mmHg 92%
    21:00 +18°C° 0 mm 1 mps 694 mmHg 92%
    22:00 +18°C° 0 mm 1 mps 695 mmHg 93%
    23:00 +18°C° 0 mm 1 mps 695 mmHg 94%

    24 July, Wednesday

    Time Temperature Precipitation Wind Pressure Humidity
    00:00 +18°C° 0 mm 1 mps 695 mmHg 94%
    01:00 +16°C° 0.2 mm 1 mps 695 mmHg 95%
    02:00 +16°C° 0.2 mm 1 mps 695 mmHg 96%
    03:00 +16°C° 0.2 mm 1 mps 695 mmHg 97%
    04:00 +15°C° 1.8 mm 0 mps 695 mmHg 98%
    05:00 +14°C° 1.8 mm 0 mps 696 mmHg 98%
    06:00 +14°C° 1.8 mm 0 mps 696 mmHg 99%
    07:00 +14°C° 0.3 mm 0 mps 696 mmHg 99%
    08:00 +14°C° 0.3 mm 0 mps 696 mmHg 99%
    09:00 +14°C° 0.3 mm 0 mps 697 mmHg 99%
    10:00 +14°C° 1.5 mm 0 mps 697 mmHg 99%
    11:00 +14°C° 1.5 mm 0 mps 697 mmHg 99%
    12:00 +14°C° 1.5 mm 1 mps 697 mmHg 98%
    13:00 +14°C° 2 mm 1 mps 697 mmHg 98%
    14:00 +13°C° 2 mm 1 mps 697 mmHg 98%
    15:00 +12°C° 2 mm 1 mps 696 mmHg 98%
    16:00 +12°C° 0.7 mm 1 mps 697 mmHg 98%
    17:00 +11°C° 0.7 mm 1 mps 697 mmHg 98%
    18:00 +11°C° 0.7 mm 1 mps 698 mmHg 99%
    19:00 +11°C° 0.7 mm 1 mps 698 mmHg 99%
    20:00 +11°C° 0.7 mm 1 mps 698 mmHg 99%
    21:00 +11°C° 0.7 mm 1 mps 699 mmHg 99%
    22:00 +11°C° 0.5 mm 1 mps 699 mmHg 99%
    23:00 +11°C° 0.5 mm 1 mps 699 mmHg 99%

    25 July, Thursday

    Time Temperature Precipitation Wind Pressure Humidity
    00:00 +11°C° 0.5 mm 1 mps 699 mmHg 99%
    01:00 +10°C° 1.1 mm 1 mps 699 mmHg 99%
    02:00 +9°C° 1.1 mm 2 mps 698 mmHg 99%
    03:00 +9°C° 1.1 mm 2 mps 698 mmHg 98%
    04:00 +9°C° 1.8 mm 2 mps 698 mmHg 99%
    05:00 +10°C° 1.8 mm 1 mps 698 mmHg 99%
    06:00 +10°C° 1.8 mm 1 mps 698 mmHg 99%
    07:00 +10°C° 2.2 mm 1 mps 698 mmHg 99%
    08:00 +9°C° 2.2 mm 2 mps 699 mmHg 98%
    09:00 +9°C° 2.2 mm 2 mps 699 mmHg 98%
    10:00 +9°C° 3.6 mm 2 mps 699 mmHg 98%
    11:00 +9°C° 3.6 mm 2 mps 699 mmHg 98%
    12:00 +9°C° 3.6 mm 2 mps 699 mmHg 98%
    13:00 +9°C° 3.8 mm 2 mps 698 mmHg 98%
    14:00 +9°C° 3.8 mm 2 mps 698 mmHg 98%
    15:00 +9°C° 3.8 mm 2 mps 698 mmHg 98%
    16:00 +8°C° 2.8 mm 2 mps 698 mmHg 98%
    17:00 +8°C° 2.8 mm 2 mps 698 mmHg 98%
    18:00 +8°C° 2.8 mm 2 mps 698 mmHg 98%
    19:00 +8°C° 1.1 mm 2 mps 698 mmHg 98%
    20:00 +8°C° 1.1 mm 2 mps 698 mmHg 98%
    21:00 +9°C° 1.1 mm 1 mps 698 mmHg 99%
    22:00 +9°C° 0.7 mm 1 mps 698 mmHg 99%
    23:00 +9°C° 0.7 mm 1 mps 697 mmHg 99%
    Show more